Change the Weather History Date:

Wednesday, April 16, 2014

  Actual Average Record
Temperature  
Mean Temperature 40 °F -  
Max Temperature 53 °F 70 °F 91 °F (1972)
Min Temperature 26 °F 42 °F 26 °F (1963)
Degree Days  
Heating Degree Days 26    
Moisture  
Dew Point 21 °F    
Average Humidity 49    
Maximum Humidity 80    
Minimum Humidity 28    
Precipitation  
Precipitation 0.00 in - - ()
Sea Level Pressure  
Sea Level Pressure 30.34 in    
Wind  
Wind Speed 5 mph (NE)    
Max Wind Speed 12 mph    
Max Gust Speed 18 mph    
Visibility 10 miles    
Events      
Averages and records for this station are not official NWS values.
T = Trace of Precipitation, MM = Missing Value Source: NWS Daily Summary

Daily Weather History Graph

Daily Weather History Graph

Search for Another Location

Airport or City:

Trip Planner

Search our weather history database for the weather conditions in past years. The results will help you decide how hot, cold, wet, or windy it might be!

Date:

Astronomy

Apr. 16, 2014 Rise Set
Actual Time 6:49 AM EDT 7:59 PM EDT
Civil Twilight 6:23 AM EDT 8:25 PM EDT
Nautical Twilight 5:51 AM EDT 8:57 PM EDT
Astronomical Twilight 5:18 AM EDT 9:30 PM EDT
Moon 9:38 PM EDT (4/16) 7:38 AM EDT (4/16)
Length of Visible Light 14h 02m
Length of Day
13h 09m
Full, 98% of the Moon is Illuminated
Apr 16
Full
Apr 22
Last Quarter
Apr 29
New
May 6
First Quarter
May 14
Full

Hourly Weather History & Observations

Time (EDT) Temp. Windchill Dew Point Humidity Pressure Visibility Wind Dir Wind Speed Gust Speed Precip Events Conditions
12:15 AM 33.8 °F 25.8 °F 19.4 °F 56% 30.11 in 10.0 mi North 10.4 mph 18.4 mph N/A   Clear
12:35 AM 32.0 °F 23.6 °F 19.4 °F 60% 30.12 in 10.0 mi NNW 10.4 mph 17.3 mph N/A   Clear
12:55 AM 32.0 °F 23.6 °F 19.4 °F 60% 30.12 in 10.0 mi NNW 10.4 mph 18.4 mph N/A   Clear
1:15 AM 32.0 °F 25.6 °F 19.4 °F 60% 30.14 in 10.0 mi North 6.9 mph 18.4 mph N/A   Clear
1:35 AM 32.0 °F - 19.4 °F 60% 30.16 in 10.0 mi Calm Calm - N/A   Clear
1:55 AM 32.0 °F 24.8 °F 19.4 °F 60% 30.17 in 10.0 mi NW 8.1 mph - N/A   Clear
2:15 AM 32.0 °F 25.6 °F 19.4 °F 60% 30.18 in 10.0 mi NW 6.9 mph - N/A   Clear
2:35 AM 32.0 °F 26.4 °F 21.2 °F 64% 30.19 in 10.0 mi NW 5.8 mph - N/A   Clear
2:55 AM 32.0 °F 26.4 °F 21.2 °F 64% 30.20 in 10.0 mi NW 5.8 mph - N/A   Clear
3:15 AM 32.0 °F 28.7 °F 21.2 °F 64% 30.20 in 10.0 mi NW 3.5 mph - N/A   Clear
3:35 AM 32.0 °F 25.6 °F 19.4 °F 60% 30.22 in 10.0 mi North 6.9 mph - N/A   Clear
3:55 AM 32.0 °F 28.7 °F 19.4 °F 60% 30.22 in 10.0 mi NE 3.5 mph - N/A   Clear
4:15 AM 32.0 °F 24.8 °F 19.4 °F 60% 30.22 in 10.0 mi North 8.1 mph - N/A   Clear
4:40 AM 30.2 °F - 19.4 °F 64% 30.24 in 10.0 mi Calm Calm - N/A   Clear
4:55 AM 32.0 °F 26.4 °F 17.6 °F 55% 30.24 in 10.0 mi North 5.8 mph - N/A   Clear
5:15 AM 32.0 °F 27.5 °F 17.6 °F 55% 30.25 in 10.0 mi NNW 4.6 mph - N/A   Clear
5:30 AM 30.2 °F - 19.4 °F 64% 30.26 in 10.0 mi Calm Calm - N/A   Clear
5:57 AM 28.4 °F 24.6 °F 21.2 °F 74% 30.27 in 10.0 mi East 3.5 mph - N/A   Clear
6:00 AM 28.4 °F 24.6 °F 21.2 °F 74% 30.27 in 10.0 mi East 3.5 mph - N/A   Clear
6:38 AM 26.6 °F - 21.2 °F 80% 30.30 in 10.0 mi Calm Calm - N/A   Clear
6:55 AM 28.4 °F - 21.2 °F 74% 30.31 in 10.0 mi Calm Calm - N/A   Clear
6:57 AM 26.6 °F - 21.2 °F 80% 30.32 in 10.0 mi Calm Calm - N/A   Clear
7:20 AM 28.4 °F - 21.2 °F 74% 30.33 in 10.0 mi Calm Calm - N/A   Clear
7:35 AM 30.2 °F - 23.0 °F 75% 30.35 in 10.0 mi Calm Calm - N/A   Clear
7:55 AM 32.0 °F - 23.0 °F 69% 30.37 in 10.0 mi Calm Calm - N/A   Clear
8:15 AM 32.0 °F - 21.2 °F 64% 30.38 in 10.0 mi Calm Calm - N/A   Clear
8:35 AM 32.0 °F - 21.2 °F 64% 30.39 in 10.0 mi Calm Calm - N/A   Clear
8:55 AM 33.8 °F - 21.2 °F 60% 30.39 in 10.0 mi Calm Calm - N/A   Clear
9:15 AM 33.8 °F - 21.2 °F 60% 30.40 in 10.0 mi Calm Calm - N/A   Clear
9:35 AM 35.6 °F 31.7 °F 19.4 °F 52% 30.40 in 10.0 mi North 4.6 mph - N/A   Clear
9:55 AM 37.4 °F - 19.4 °F 48% 30.41 in 10.0 mi Calm Calm - N/A   Clear
10:15 AM 37.4 °F 30.8 °F 19.4 °F 48% 30.41 in 10.0 mi ENE 9.2 mph - N/A   Clear
10:35 AM 39.2 °F 35.0 °F 19.4 °F 45% 30.42 in 10.0 mi NE 5.8 mph - N/A   Clear
10:55 AM 39.2 °F 37.0 °F 19.4 °F 45% 30.42 in 10.0 mi NW 3.5 mph - N/A   Clear
11:15 AM 41.0 °F - 19.4 °F 42% 30.42 in 10.0 mi Calm Calm - N/A   Clear
11:35 AM 41.0 °F - 19.4 °F 42% 30.42 in 10.0 mi Calm Calm - N/A   Clear
11:55 AM 42.8 °F 38.6 °F 19.4 °F 39% 30.42 in 10.0 mi NE 6.9 mph - N/A   Clear
12:15 PM 44.6 °F 42.2 °F 17.6 °F 34% 30.42 in 10.0 mi NNE 4.6 mph - N/A   Clear
12:30 PM 44.6 °F 42.2 °F 19.4 °F 37% 30.42 in 10.0 mi North 4.6 mph - N/A   Clear
12:55 PM 46.4 °F 41.1 °F 17.6 °F 32% 30.41 in 10.0 mi ESE 11.5 mph 17.3 mph N/A   Clear
1:15 PM 46.4 °F 42.4 °F 17.6 °F 32% 30.40 in 10.0 mi East 8.1 mph 16.1 mph N/A   Clear
1:35 PM 48.2 °F - 19.4 °F 32% 30.40 in 10.0 mi East 9.2 mph - N/A   Clear
2:15 PM 48.2 °F - 19.4 °F 32% 30.40 in 10.0 mi East 5.8 mph - N/A   Clear
2:35 PM 50.0 °F - 19.4 °F 30% 30.39 in 10.0 mi NE 10.4 mph - N/A   Clear
2:55 PM 50.0 °F - 19.4 °F 30% 30.39 in 10.0 mi ENE 5.8 mph - N/A   Clear
3:15 PM 51.8 °F - 19.4 °F 28% 30.38 in 10.0 mi ENE 9.2 mph - N/A   Clear
3:35 PM 50.0 °F - 17.6 °F 28% 30.38 in 10.0 mi Calm Calm - N/A   Clear
3:55 PM 51.8 °F - 19.4 °F 28% 30.37 in 10.0 mi East 5.8 mph - N/A   Clear
4:15 PM 53.6 °F - 21.2 °F 28% 30.37 in 10.0 mi East 8.1 mph - N/A   Clear
4:35 PM 51.8 °F - 19.4 °F 28% 30.37 in 10.0 mi East 6.9 mph - N/A   Clear
4:55 PM 51.8 °F - 19.4 °F 28% 30.36 in 10.0 mi East 5.8 mph - N/A   Clear
5:15 PM 51.8 °F - 19.4 °F 28% 30.37 in 10.0 mi East 6.9 mph - N/A   Clear
5:35 PM 53.6 °F - 21.2 °F 28% 30.37 in 10.0 mi East 6.9 mph - N/A   Clear
5:55 PM 51.8 °F - 21.2 °F 30% 30.37 in 10.0 mi SE 5.8 mph - N/A   Clear
6:15 PM 51.8 °F - 21.2 °F 30% 30.38 in 10.0 mi ESE 8.1 mph - N/A   Clear
6:35 PM 51.8 °F - 21.2 °F 30% 30.38 in 10.0 mi ESE 4.6 mph - N/A   Clear
6:55 PM 51.8 °F - 21.2 °F 30% 30.38 in 10.0 mi ESE 5.8 mph - N/A   Clear
7:15 PM 50.0 °F - 21.2 °F 32% 30.38 in 10.0 mi East 5.8 mph - N/A   Clear
7:35 PM 50.0 °F - 23.0 °F 35% 30.39 in 10.0 mi ESE 3.5 mph - N/A   Clear
7:55 PM 46.4 °F 44.3 °F 23.0 °F 40% 30.39 in 10.0 mi ESE 4.6 mph - N/A   Clear
8:15 PM 46.4 °F - 23.0 °F 40% 30.40 in 10.0 mi Calm Calm - N/A   Clear
8:35 PM 44.6 °F - 21.2 °F 39% 30.41 in 10.0 mi Calm Calm - N/A   Clear
8:55 PM 44.6 °F - 21.2 °F 39% 30.42 in 10.0 mi Calm Calm - N/A   Clear
9:15 PM 44.6 °F - 23.0 °F 43% 30.43 in 10.0 mi Calm Calm - N/A   Clear
9:35 PM 42.8 °F - 23.0 °F 46% 30.43 in 10.0 mi Calm Calm - N/A   Clear
9:55 PM 42.8 °F - 23.0 °F 46% 30.44 in 10.0 mi Calm Calm - N/A   Clear
10:15 PM 42.8 °F - 23.0 °F 46% 30.45 in 10.0 mi Calm Calm - N/A   Clear
10:35 PM 42.8 °F - 23.0 °F 46% 30.46 in 10.0 mi Calm Calm - N/A   Clear
10:55 PM 41.0 °F - 23.0 °F 49% 30.46 in 10.0 mi Calm Calm - N/A   Clear
11:15 PM 41.0 °F - 23.0 °F 49% 30.47 in 10.0 mi Calm Calm - N/A   Clear
11:35 PM 39.2 °F 37.0 °F 24.8 °F 56% 30.47 in 10.0 mi NE 3.5 mph - N/A   Clear
11:55 PM 39.2 °F - 24.8 °F 56% 30.48 in 10.0 mi Calm Calm - N/A   Clear